TimeEDT,TemperatureF,Dew PointF,Humidity,Sea Level PressureIn,VisibilityMPH,Wind Direction,Wind SpeedMPH,Gust SpeedMPH,PrecipitationIn,Events,Conditions,WindDirDegrees,DateUTC
12:53 AM,52.0,39.0,61,29.88,10.0,South,3.5,-,N/A,,Clear,180,2012-10-17 04:53:00
1:53 AM,51.1,39.0,63,29.88,10.0,South,3.5,-,N/A,,Clear,180,2012-10-17 05:53:00
2:53 AM,50.0,39.9,68,29.89,10.0,Calm,Calm,-,N/A,,Clear,0,2012-10-17 06:53:00
3:53 AM,50.0,39.9,68,29.88,10.0,South,3.5,-,N/A,,Clear,190,2012-10-17 07:53:00
4:53 AM,50.0,39.9,68,29.87,10.0,SSW,3.5,-,N/A,,Clear,200,2012-10-17 08:53:00
5:53 AM,50.0,39.9,68,29.88,10.0,Variable,3.5,-,N/A,,Clear,0,2012-10-17 09:53:00
6:53 AM,51.1,39.9,66,29.88,10.0,Variable,3.5,-,N/A,,Clear,0,2012-10-17 10:53:00
7:53 AM,51.1,39.9,66,29.90,10.0,SSW,3.5,-,N/A,,Clear,210,2012-10-17 11:53:00
8:33 AM,51.8,41.0,67,29.91,10.0,Calm,Calm,-,N/A,,Partly Cloudy,0,2012-10-17 12:33:00
8:53 AM,54.0,41.0,62,29.90,10.0,Variable,4.6,-,N/A,,Partly Cloudy,0,2012-10-17 12:53:00
9:53 AM,57.0,43.0,59,29.91,10.0,Calm,Calm,-,N/A,,Clear,0,2012-10-17 13:53:00
10:53 AM,61.0,45.0,56,29.90,10.0,Variable,4.6,-,N/A,,Clear,0,2012-10-17 14:53:00
11:53 AM,64.9,46.9,52,29.89,10.0,Variable,3.5,-,N/A,,Scattered Clouds,0,2012-10-17 15:53:00
12:53 PM,69.1,48.0,47,29.86,10.0,Variable,6.9,-,N/A,,Clear,0,2012-10-17 16:53:00
1:53 PM,72.0,48.9,44,29.83,10.0,Variable,3.5,-,N/A,,Clear,0,2012-10-17 17:53:00
2:53 PM,72.0,48.0,43,29.80,10.0,Variable,4.6,-,N/A,,Clear,0,2012-10-17 18:53:00
3:53 PM,73.9,46.9,38,29.78,10.0,Variable,4.6,-,N/A,,Clear,0,2012-10-17 19:53:00
4:53 PM,71.1,45.0,39,29.76,10.0,Variable,4.6,-,N/A,,Clear,0,2012-10-17 20:53:00
5:53 PM,71.1,44.1,38,29.75,10.0,Calm,Calm,-,N/A,,Clear,0,2012-10-17 21:53:00
6:53 PM,66.9,42.1,40,29.75,10.0,Variable,5.8,-,N/A,,Clear,0,2012-10-17 22:53:00
7:53 PM,64.9,41.0,42,29.75,10.0,Calm,Calm,-,N/A,,Clear,0,2012-10-17 23:53:00
8:53 PM,63.0,39.9,43,29.74,10.0,Calm,Calm,-,N/A,,Clear,0,2012-10-18 00:53:00
9:53 PM,62.1,39.9,44,29.72,10.0,Variable,4.6,-,N/A,,Clear,0,2012-10-18 01:53:00
10:53 PM,63.0,39.9,43,29.68,10.0,SSE,9.2,-,N/A,,Clear,160,2012-10-18 02:53:00
11:53 PM,61.0,41.0,48,29.67,10.0,SSE,5.8,-,N/A,,Clear,160,2012-10-18 03:53:00